Tracking 28531 objects as of 26-Feb-2024
HD Live streaming from Space Station
objects crossing your sky now

SCOUT G-1 DEB

Track SCOUT G-1 DEB now!
10-day predictions


NORAD ID: 18562
Int'l Code: 1987-080H
Perigee: 983.1 km
Apogee: 1,252.7 km
Inclination: 89.9 °
Period: 107.5 minutes
Semi major axis: 7488 km
RCS: 0.039 m2 (small)
Launch date: September 16, 1987
Source: United States (US)
Launch site: AIR FORCE WESTERN TEST RANGE (AFWTR)

Note: This is SATELLITE DEBRIS
Your satellite tracking list
Your tracking list is empty




NASA's NSSDC Master Catalog

Two Line Element Set (TLE):
1 18562U 87080H   24056.56659941  .00000331  00000-0  54022-3 0  9990
2 18562  89.9388 161.1194 0180019  30.2027 345.4204 13.39597078777707
Source of the keplerian elements: AFSPC